Theta_e
294 293 292 292 291 291 290 291 291 291 291 291 291 290 290 293 293 293 292 292 291 291
293 292 292 291 291 290 291 292 291 291 290 291 291 290 290 290 290 293 293 292 293 292
292 292 291 291 290 290 290 291 290 290 290 289 289 289 289 289 291 291 292 292 291 291
291 291 291 290 290 290 290 290 289 289 288 288 288 288 287 287 289 289 290 291 291 290
292 291 291 290 290 290 289 289 288 288 287 287 287 287 287 288 287 289 289 289 289 289
291 291 291 290 289 289 288 288 288 287 286 286 286 286 287 288 288 289 289 289 289 289
291 291 291 290 289 289 288 288 287 287 286 286 286 286 286 287 288 288 289 289 290 290
292 291 290 289 289 289 288 287 287 286 286 285 286 287 286 288 288 288 288 289 289 289
291 290 289 288 288 288 287 287 286 285 285 284 286 289 291 289 288 287 287 286 288 288
290 289 288 288 287 286 286 285 284 284 284 283 284 288 289 288 287 287 287 287 286 286
288 287 286 286 285 285 285 284 284 283 283 283 285 287 288 288 287 287 287 286 286 286
287 285 285 283 283 283 283 283 283 283 284 282 283 287 287 287 286 285 285 285 286 286
286 285 284 283 283 284 283 283 284 284 284 285 284 286 287 287 285 284 283 284 285 285
285 284 283 282 284 284 283 284 283 281 281 283 283 283 287 287 285 284 284 284 284 284
Wind_Speed
8 6 5 6 5 4 4 4 4 3 3 2 1 2 4 2 2 2 3 4 3 4
7 8 7 7 6 4 5 4 4 4 3 3 4 3 2 2 2 2 2 3 3 4
7 7 7 6 7 6 5 4 5 5 5 4 3 3 3 3 3 3 1 3 4 6
7 7 7 6 6 6 5 5 5 4 3 3 1 1 1 3 3 3 4 4 5 7
7 7 6 6 6 6 6 5 5 4 3 2 2 1 1 2 3 3 4 6 6 8
7 7 7 6 6 6 6 5 4 4 3 2 1 1 0 1 2 2 4 6 7 9
7 6 6 6 6 6 5 5 4 3 2 1 1 1 1 1 2 4 5 6 7 8
7 6 7 6 5 5 5 4 3 2 2 2 2 1 2 1 3 5 7 7 7 7
8 7 6 6 6 5 5 5 4 3 3 3 2 6 5 5 3 5 7 7 6 8
9 8 7 6 6 6 5 4 3 3 2 2 2 6 6 6 3 5 5 6 6 7
9 8 7 7 6 5 4 4 3 1 0 1 1 3 5 6 4 4 6 6 6 7
10 10 8 7 6 4 4 4 3 1 2 3 4 5 5 4 4 4 6 5 5 5
11 10 10 8 7 3 3 4 3 3 3 4 5 7 4 5 2 4 4 5 4 6
9 11 9 8 5 5 4 3 3 3 3 5 5 6 8 5 3 3 4 4 5 3
Wind_Direction
120 125 123 130 131 128 129 138 141 117 104 82 104 176 194 205 234 266 255 293 281 274
124 125 130 127 123 126 127 131 122 113 91 57 43 31 343 316 334 31 348 328 312 290
132 131 131 126 129 128 125 111 102 89 82 73 54 32 17 6 358 345 317 302 288 294
139 132 126 126 129 130 115 113 114 123 127 129 136 104 62 349 322 334 318 306 298 293
135 133 130 133 130 119 129 138 145 143 139 143 127 100 36 24 322 320 313 302 293 286
139 142 144 133 131 141 148 148 137 127 119 97 72 95 93 263 293 309 301 293 289 294
158 152 144 142 146 152 151 140 138 134 112 71 22 356 344 37 340 310 294 291 288 294
155 148 141 142 154 155 147 142 140 118 65 28 2 327 336 297 287 300 301 300 294 287
153 147 153 152 163 156 153 144 127 95 59 27 3 340 341 5 325 303 298 298 300 304
159 159 163 164 160 165 158 142 127 113 95 42 18 5 352 341 303 304 297 297 299 306
159 161 163 164 159 162 155 149 147 146 46 294 272 344 333 329 297 303 293 287 297 304
163 165 168 158 168 175 157 146 149 157 293 299 294 292 311 319 315 278 276 273 286 306
165 165 168 164 163 172 158 156 153 244 250 274 279 273 273 299 281 275 280 281 289 309
165 170 163 147 156 161 164 166 193 244 243 253 247 263 252 275 283 263 286 294 308 301